TimePDT,TemperatureF,Dew PointF,Humidity,Sea Level PressureIn,VisibilityMPH,Wind Direction,Wind SpeedMPH,Gust SpeedMPH,PrecipitationIn,Events,Conditions,WindDirDegrees,DateUTC
12:58 AM,50.5,35.8,57,30.22,10.0,SE,4.6,-,N/A,,Overcast,140,2013-04-27 07:58:00
1:58 AM,50.5,37.2,60,30.22,10.0,Variable,2.3,-,N/A,,Mostly Cloudy,0,2013-04-27 08:58:00
2:58 AM,52.3,36.0,54,30.21,10.0,SE,1.2,-,N/A,,Overcast,130,2013-04-27 09:58:00
3:58 AM,50.0,37.4,62,30.19,10.0,SE,6.9,-,N/A,,Mostly Cloudy,140,2013-04-27 10:58:00
4:58 AM,53.4,34.7,49,30.20,10.0,SSW,5.8,-,N/A,,Overcast,210,2013-04-27 11:58:00
5:58 AM,54.1,34.5,48,30.20,10.0,SSW,10.4,-,N/A,,Overcast,210,2013-04-27 12:58:00
6:58 AM,53.8,35.8,51,30.20,10.0,South,11.5,-,N/A,,Overcast,190,2013-04-27 13:58:00
7:58 AM,54.0,36.9,52,30.21,10.0,SSW,10.4,-,N/A,,Mostly Cloudy,200,2013-04-27 14:58:00
8:58 AM,55.0,37.9,53,30.22,10.0,SSW,5.8,-,N/A,,Scattered Clouds,210,2013-04-27 15:58:00
9:58 AM,56.5,38.3,51,30.24,10.0,SW,10.4,19.6,N/A,,Overcast,220,2013-04-27 16:58:00
10:58 AM,55.0,38.5,54,30.25,10.0,South,6.9,-,N/A,,Overcast,180,2013-04-27 17:58:00
11:58 AM,55.8,39.9,55,30.26,10.0,SSW,8.1,-,N/A,,Scattered Clouds,210,2013-04-27 18:58:00
12:58 PM,55.9,41.5,58,30.26,10.0,South,9.2,-,N/A,,Overcast,190,2013-04-27 19:58:00
1:57 PM,57.2,46.4,67,30.24,10.0,SW,5.8,-,N/A,,Light Drizzle,220,2013-04-27 20:57:00
1:58 PM,56.8,45.5,66,30.26,10.0,SSW,8.1,-,N/A,,Light Drizzle,210,2013-04-27 20:58:00
2:29 PM,55.4,48.2,77,30.24,10.0,South,8.1,-,N/A,,Overcast,190,2013-04-27 21:29:00
2:58 PM,54.0,47.8,80,30.27,10.0,South,9.2,-,0.01,,Overcast,180,2013-04-27 21:58:00
3:09 PM,53.6,48.2,82,30.24,10.0,South,10.4,-,N/A,Rain,Light Rain,180,2013-04-27 22:09:00
3:29 PM,53.6,48.2,82,30.24,10.0,South,8.1,-,N/A,,Overcast,190,2013-04-27 22:29:00
3:58 PM,53.8,49.5,85,30.25,10.0,South,8.1,-,0.01,,Mostly Cloudy,180,2013-04-27 22:58:00
4:43 PM,55.4,50.0,82,30.23,10.0,South,10.4,-,N/A,,Mostly Cloudy,180,2013-04-27 23:43:00
4:58 PM,55.2,48.9,79,30.25,10.0,South,9.2,-,N/A,,Overcast,180,2013-04-27 23:58:00
5:28 PM,55.4,48.2,77,30.22,10.0,SSE,10.4,-,N/A,,Overcast,160,2013-04-28 00:28:00
5:58 PM,54.3,48.6,81,30.25,10.0,SSE,10.4,-,N/A,,Overcast,160,2013-04-28 00:58:00
6:03 PM,53.6,48.2,82,30.22,10.0,SSE,9.2,-,N/A,,Overcast,160,2013-04-28 01:03:00
6:40 PM,53.6,48.2,82,30.23,7.0,South,9.2,-,N/A,,Overcast,180,2013-04-28 01:40:00
6:50 PM,51.8,50.0,94,30.23,3.0,South,8.1,-,N/A,,Light Drizzle,170,2013-04-28 01:50:00
6:55 PM,51.8,50.0,94,30.22,4.0,South,8.1,-,N/A,,Light Drizzle,170,2013-04-28 01:55:00
6:58 PM,52.0,50.0,93,30.24,5.0,South,8.1,-,0.03,,Light Drizzle,170,2013-04-28 01:58:00
7:03 PM,51.8,50.0,94,30.22,8.0,South,8.1,-,N/A,,Light Drizzle,180,2013-04-28 02:03:00
7:05 PM,51.8,50.0,94,30.22,10.0,South,9.2,-,N/A,,Overcast,170,2013-04-28 02:05:00
7:20 PM,51.8,50.0,94,30.22,10.0,South,9.2,-,N/A,,Overcast,180,2013-04-28 02:20:00
7:58 PM,51.4,49.5,93,30.25,10.0,South,6.9,-,0.00,,Overcast,180,2013-04-28 02:58:00
8:58 PM,50.9,49.5,95,30.25,10.0,South,6.9,-,N/A,,Overcast,170,2013-04-28 03:58:00
9:28 PM,50.0,50.0,100,30.24,10.0,South,9.2,-,N/A,,Overcast,180,2013-04-28 04:28:00
9:33 PM,50.0,50.0,100,30.24,10.0,South,9.2,-,N/A,,Overcast,180,2013-04-28 04:33:00
9:38 PM,50.0,50.0,100,30.23,10.0,South,9.2,-,N/A,,Overcast,170,2013-04-28 04:38:00
9:43 PM,50.0,50.0,100,30.23,9.0,South,8.1,-,N/A,,Overcast,170,2013-04-28 04:43:00
9:58 PM,50.4,49.5,97,30.25,8.0,South,9.2,-,N/A,,Overcast,170,2013-04-28 04:58:00
10:03 PM,50.0,50.0,100,30.23,10.0,South,10.4,-,N/A,,Overcast,170,2013-04-28 05:03:00
10:13 PM,50.0,50.0,100,30.23,10.0,SSE,12.7,-,N/A,,Overcast,160,2013-04-28 05:13:00
10:23 PM,50.0,50.0,100,30.23,10.0,South,10.4,-,N/A,,Overcast,170,2013-04-28 05:23:00
10:43 PM,50.0,50.0,100,30.24,10.0,South,9.2,-,N/A,,Overcast,170,2013-04-28 05:43:00
10:58 PM,50.2,49.1,96,30.25,10.0,South,8.1,-,N/A,,Overcast,170,2013-04-28 05:58:00
11:13 PM,50.0,48.2,94,30.23,10.0,South,9.2,-,N/A,,Overcast,170,2013-04-28 06:13:00
11:28 PM,50.0,48.2,94,30.23,10.0,South,9.2,-,N/A,,Overcast,180,2013-04-28 06:28:00
11:58 PM,50.0,48.6,95,30.24,10.0,South,9.2,-,N/A,,Overcast,180,2013-04-28 06:58:00